Regional Weather Roundup
Issued by NWS

Home | Current Version | Previous Version | Text Only | Print | Product List | Glossary On
Versions: 1 2 3 4 5 6 7 8 9 10 11 12 13 14 15 16 17 18 19 20 21 22 23 24 25 26 27 28 29 30 31 32 33 34 35 36 37 38 39 40 41 42 43 44 45 46 47 48 49 50
000
ASUS45 KSLC 022310
RWRUT

UTAH REGIONAL WEATHER ROUNDUP
NATIONAL WEATHER SERVICE SALT LAKE CITY UT
500 PM MDT WED SEP 02 2015

UTZ001>011-023>025-030000-

NORTHERN UTAH

CITY           SKY/WX    TMP DP  RH WIND       PRES   REMARKS
BRIGHAM CITY     N/A     89  31  12 SW10G18   29.89F
HILL AFB       PTSUNNY   89  42  18 S10       29.92F
LOGAN          SUNNY     88  38  17 SW14G21   29.90F
OGDEN            N/A     89  42  19 W8        29.89F
PROVO AIRPORT  MOSUNNY   86  48  26 SW12      29.94F
SALT LAKE CITY PTSUNNY   90  39  16 S18G24    29.87F
VERNAL         SUNNY     86  36  16 SW10G22   30.00F
WENDOVER         N/A     91  37  15 S10       29.84F
HEBER CITY       N/A     86  34  15 W15G26    30.01S
WEST JORDAN    MOSUNNY   88  39  18 S14G24    29.91F

$$

UTZ012>022-026-027-030000-

SOUTHERN/CENTRAL UTAH

CITY           SKY/WX    TMP DP  RH WIND       PRES   REMARKS
BLANDING         N/A    N/A N/A N/A SW7       30.19S
BRYCE CANYON     N/A     76  34  21 S15G23    30.24F
CEDAR CITY       N/A     80  35  19 SW25G32   30.07F
DELTA            N/A     90  33  13 S18G30    29.94F
HANKSVILLE       N/A     91  37  15 S16       29.98F
MILFORD          N/A     88  37  16 SW22G33   29.99F
MOAB/CYNLANDS  SUNNY     91  41  17 SW12G24   29.97F
PRICE            N/A     82  39  21 S12G20    30.06F
ST GEORGE        N/A     97  43  15 S14G28    29.89F HX  92
KANAB            N/A     86  39  19 SW13G20   30.10F

$$

REGIONAL REPORTS     COLORADO/ARIZONA

CITY           SKY/WX    TMP DP  RH WIND       PRES   REMARKS
CRAIG, CO      MOSUNNY   77  45  32 S3        30.11F
GRAND JUNCTION MOSUNNY   86  46  24 NW8       30.01F
RIFLE          LGT RAIN  76  55  48 SE6       30.08F
MONTROSE       PTSUNNY   79  49  34 NW13      30.11R
CORTEZ         MOSUNNY   81  46  29 S13       30.13F
PAGE, AZ         N/A     90  44  20 MISG      29.98F
GRAND CANYON     N/A     79  41  25 SW14G26   30.21F
KINGMAN          N/A     92  40  16 SW23      29.96F
FLAGSTAFF        N/A     73  49  42 SW13G23   30.26F

$$

REGIONAL REPORTS    NEVADA/IDAHO/WYOMING

CITY           SKY/WX    TMP DP  RH WIND       PRES   REMARKS
LAS VEGAS, NV    N/A    100  39  12 SW10G22   29.77F HX  95
ELY              N/A     83  37  19 S17G44    30.02F
ELKO             N/A     89  23   9 W24G30    29.86F HAZE
POCATELLO, ID  MOSUNNY   89  34  14 W15       29.85F
BURLEY           N/A     85  34  16 NW7       29.81F
EVANSTON, WY   SUNNY     80  32  17 SW22G35   30.11F
ROCK SPRINGS   PTSUNNY   78  34  20 W8        30.07F
KEMMERER       MOSUNNY   79  32  18 SW15G28   30.12S

$$



USA.gov is the U.S. government's official web portal to all federal, state and local government web resources and services.